Regional Weather Roundup
Issued by NWS

Home | Current Version | Previous Version | Text Only | Print | Product List | Glossary Off
Versions: 1 2 3 4 5 6 7 8 9 10 11 12 13 14 15 16 17 18 19 20 21 22 23 24 25 26 27

000
ASUS45 KCYS 230110
RWRWY

WYOMING REGIONAL WEATHER ROUNDUP
NATIONAL WEATHER SERVICE CHEYENNE WY
700 PM MDT FRI JUL 22 2016

NOTE:  "FAIR" INDICATES FEW OR NO CLOUDS BELOW 12,000 FEET
WITH NO SIGNIFICANT WEATHER AND/OR OBSTRUCTIONS TO VISIBILITY.

WYZ001-230200-
YELLOWSTONE NATIONAL PARK

CITY           SKY/WX    TMP DP  RH WIND       PRES   REMARKS
LK YELLOWSTONE   N/A     75  25  15 SW8       30.29S
W YELLOWSTONE  NOT AVBL

$$
WYZ002>013-054>058-071-098>099-230200-
NORTHERN WYOMING

CITY           SKY/WX    TMP DP  RH WIND       PRES   REMARKS
JACKSON        SUNNY     82  34  17 W18G25    30.18S
CODY           FAIR      90  43  19 SW15      30.00F
GREYBULL       FAIR      92  40  16 N3        29.92F
WORLAND        FAIR      91  43  18 NW12G23   29.95R
SHERIDAN       FAIR      88  45  22 NW22      29.91R
BUFFALO        FAIR      91  38  15 N13G18    29.98F
GILLETTE       FAIR      91  45  20 SE18      29.90F
HULETT         FAIR      91  46  21 S9        29.95F
NEWCASTLE      FAIR      86  45  23 SE18G35   30.00S

$$
WYZ014>020-022>026-101>103-230200-
CENTRAL WYOMING

CITY           SKY/WX    TMP DP  RH WIND       PRES   REMARKS
BIG PINEY      FAIR      83  44  25 MISG      30.23F
PINEDALE       FAIR      73  48  40 E9        30.27F
DUBOIS         FAIR      72  43  35 NW15      30.22F
LANDER         FAIR      79  46  31 SE5       30.10F
RIVERTON       FAIR      83  42  23 SW12      30.10F
CASPER         LGT RAIN  90  40  17 W33G44    30.05R
DOUGLAS          N/A    N/A N/A N/A MISG      30.01F

$$
WYZ021-027>030-104>119-230200-
SOUTHERN WYOMING

CITY           SKY/WX    TMP DP  RH WIND       PRES   REMARKS
EVANSTON       FAIR      85  32  15 W16       30.25F
KEMMERER         N/A     82  28  14 SW24G30   30.26S
FORT BRIDGER   FAIR      87  32  14 NW23G31   30.27F
ROCK SPRINGS   FAIR      80  38  22 SW8G18    30.23F
DIXON          MOCLDY    78  42  27 W20G31    30.28R
RAWLINS        FAIR      81  40  23 W25G36    30.23S
SARATOGA       FAIR      81  41  24 W10       30.25S
LARAMIE        PTSUNNY   81  45  28 S7        30.24F
CHEYENNE       FAIR      85  46  25 S9        30.15F
TORRINGTON     FAIR      83  61  47 E20G28    29.98F
PINE BLUFFS    FAIR      86  45  23 CALM      30.08S

$$




USA.gov is the U.S. government's official web portal to all federal, state and local government web resources and services.